Terminal Aerodrome Forecast
Issued by NWS

Home | Current Version | Previous Version | Text Only | Print | Product List | Glossary On
Versions: 1 2 3 4 5 6 7 8 9 10 11 12 13 14 15 16
000
FTUS44 KLZK 211700
TAFLIT
TAF
KLIT 211738Z 2118/2218 23010G17KT P6SM FEW035
     FM220200 21005KT P6SM SKC
     FM221100 23010KT P6SM FEW020=

USA.gov is the U.S. government's official web portal to all federal, state and local government web resources and services.